99P/Kowal 1 (2022)

Japanese version
Home page
Updated on February 21, 2021

---------------------------------------------------------------------

* Profile

* Pictures

* Orbital Elements

Epoch 2022 Apr. 11.0 TT = JDT 2459680.5
T 2022 Apr. 12.64314 TT                                 Rudenko
q   4.7061087            (2000.0)            P               Q
n   0.06532600     Peri.  174.93290     -0.92014954     +0.38994157
a   6.1058390      Node    28.10169     -0.36186193     -0.81203732
e   0.2292445      Incl.    4.33963     -0.14960204     -0.43421304
P  15.1
From 654 observations 1991 Feb. 21-2021 Jan. 18, mean residual 0".7.

* Finding Charts

* Magnitudes Graph

        m1 = 0.7 + 5 log d + 20.0 log r

---------------------------------------------------------------------

The orbital elements are published on M.P.E.C. 2021-B143.
The charts are made with StellaNavigator Ver.10 (AstroArts).
The magnitudes graphs are made with Comet for Windows.

---------------------------------------------------------------------

Copyright(C) Seiichi Yoshida (comet@aerith.net). All rights reserved.